Preview of NWS' New Version of Forecast
This preview is not operational and should not be used for support decisions.

Regional Weather Roundup (RWR)

Issued by National Weather Service (NWS)

                            
000
ASUS42 KTBW 232016
RWRFL 
FLORIDA REGIONAL WEATHER ROUNDUP
NATIONAL WEATHER SERVICE TAMPA BAY RUSKIN FL
400 PM EDT SAT MAR 23 2019

NOTE: "FAIR" INDICATES FEW OR NO CLOUDS BELOW 12,000 FEET WITH NO
SIGNIFICANT WEATHER AND/OR OBSTRUCTIONS TO VISIBILITY.

FLZ001>010-012>015-112-114-115-232100-
PANHANDLE FLORIDA
  
CITY           SKY/WX    TMP DP  RH WIND       PRES   REMARKS
PENSACOLA      FAIR      71  34  25 SE12      30.20F                  
PENSACOLA NAS  FAIR      69  45  41 S14       30.20F                  
MILTON NAS     FAIR      75  41  29 S9        30.18F                  
CRESTVIEW      FAIR      77  30  17 SW3       30.19F                  
DUKE FIELD     FAIR      76  36  23 S8        30.17F                  
VALPARAISO     FAIR      71  40  33 S15       30.19F                  
PANAMA CITY    FAIR      73  42  32 S13       30.19F                  
TYNDALL AFB      N/A     69  46  43 SW14      30.20F                  
APALACHICOLA   FAIR      69  39  33 S14       30.22F                  

STATION/POSITION SKY/WX   TEMP    WIND        PRES    WAVE   SWELL
                          AIR SEA DIR/SP/G            HT/PER HT/PER
                          (F)     (DEG/KT/KT) (MB)    (FT/S) (FT/S)
30.1N   87.6W                                 1023.4F   1
29.2N   88.2W                      90/  6/  8 1023.3F   1
PANAMA CITY BEAC           66 66              1023.2F
TOWER C                    64     100/  8/  9 1023.4F

$$
FLZ011-016>038-118-127-128-134-139-239-232100-
NORTH FLORIDA
  
CITY           SKY/WX    TMP DP  RH WIND       PRES   REMARKS
MARIANNA       FAIR      75  34  22 VRB5      30.18F                  
TALLAHASSEE    FAIR      77  35  21 CALM      30.18F                  
PERRY          FAIR      78  32  18 SE5       30.19F                  
LIVE OAK       SUNNY     77  30  18 S3        30.18F                  
CROSS CITY     FAIR      78  34  20 SE7       30.18F                  
LAKE CITY      FAIR      73  34  23 CALM      30.19F                  
GAINESVILLE    FAIR      78  33  19 CALM      30.20F                  
WILLISTON        N/A    N/A N/A N/A MISG        N/A                   
PALATKA        FAIR     N/A N/A N/A N5        30.19F                  
MAYPORT NAS    FAIR      66  49  54 NE9       30.22F                  
JACKSONVILLE   FAIR      72  40  31 NE10      30.20F                  
JAX NAS        FAIR      72  37  28 N8        30.21F                  
JAX CECIL      SUNNY    N/A N/A N/A VRB5      30.20F                  
FERNANDINA BEA FAIR      67  47  48 E9        30.22F                  
ST AUGUSTINE   FAIR      66  49  54 NE10      30.23F                  
PALM COAST     SUNNY     70  43  37 NE6       30.21F                  

STATION/POSITION SKY/WX   TEMP    WIND        PRES    WAVE   SWELL
                          AIR SEA DIR/SP/G            HT/PER HT/PER
                          (F)     (DEG/KT/KT) (MB)    (FT/S) (FT/S)
SHELL POINT      NOT AVBL
KEATON BEACH               65     250/  9/ 10 1022.7F
CEDAR KEY                  69     250/  5/  8 1022.1F
FERNANDINA                 69 64              1024.1F
30.7N   81.3W                 65                N/A     2/11
MAYPORT                    62 64              1023.5F
31.4N   80.9W              62 62   60/ 14/ 16 1023.8F   3/ 5
ST AUGUSTINE               62 65   30/  9/  9 1023.4F

$$
FLZ040-043>046-052-053-057-058-063-144-232100-
INTERIOR CENTRAL FLORIDA
  
CITY           SKY/WX    TMP DP  RH WIND       PRES   REMARKS
OCALA          FAIR      78  32  18 E3        30.18F                  
LEESBURG       FAIR      77  35  21 SE7       30.18F                  
SANFORD        FAIR      78  42  27 NE7       30.17F                  
ORLANDO EXEC   FAIR      79  37  22 E6        30.17F                  
ORLANDO INTL   FAIR      80  39  23 SE8       30.17F                  
KISSIMMEE      FAIR      78  41  26 SE9       30.18F                  
WINTER HAVEN   FAIR      78  39  24 VRB5      30.18F                  
LAKELAND       SUNNY     77  39  25 CALM      30.18F                  
BARTOW         SUNNY     79  41  25 E9        30.16F                  
SEBRING        FAIR      77  44  31 S6        30.17F                  
OKEECHOBEE     FAIR      77  50  38 S3        30.16F                  

$$
FLZ041-047-054-059-064-141-147-232100-
EAST CENTRAL FLORIDA
  
CITY           SKY/WX    TMP DP  RH WIND       PRES   REMARKS
ORMOND BEACH   SUNNY     68  45  42 NE9       30.21F                  
DAYTONA BEACH  FAIR      72  48  42 E9        30.21S                  
DELAND         FAIR      77  43  29 E8        30.18F                  
NEW SMYRNA BEA SUNNY     70  50  49 NE12      30.22S                  
JFK SPACE CTR  FAIR      72  52  49 NE7       30.19F                  
TITUSVILLE     SUNNY     77  43  29 E9        30.20S                  
CAPE CANAVERAL FAIR      73  51  44 NE10      30.18F                  
MELBOURNE      FAIR      75  49  39 E8        30.18F                  
VERO BEACH     FAIR      75  54  47 E9        30.18F                  
FT PIERCE      FAIR      76  53  44 E8        30.17                   
STUART         SUNNY     75  52  43 E5        30.19F                  

STATION/POSITION SKY/WX   TEMP    WIND        PRES    WAVE   SWELL
                          AIR SEA DIR/SP/G            HT/PER HT/PER
                          (F)     (DEG/KT/KT) (MB)    (FT/S) (FT/S)
28.5N   80.2W              66     340/ 12/ 14 1022.9F   3/ 7   3/ 7
28.9N   78.5W              72 75  330/  4/  8 1022.7F   4/ 7   3/ 7
TRIDENT PIER               73 67              1023.4F
28.4N   80.5W                 68                N/A     1/11
27.5N   80.2W                 71                N/A     2/11

$$
FLZ050-056-061-142-242-148-248-149-249-151-251-155-255-
160-260-232100-
WEST CENTRAL FLORIDA
  
CITY           SKY/WX    TMP DP  RH WIND       PRES   REMARKS
CRYSTAL RIVER  FAIR      79  32  18 NE5       30.17F                  
INVERNESS      FAIR      77  37  24 CALM      30.18F HAZE             
BROOKSVILLE    FAIR      80  37  21 E8        30.17F                  
CLEARWATER AIR FAIR      72  46  40 N5        30.17F                  
ST PETE CLEARW FAIR      77  40  26 NE5       30.17F                  
TAMPA INTL     FAIR      75  48  38 W9        30.17F                  
TAMPA EXEC     FAIR      79  45  29 CALM      30.17F                  
PLANT CITY     FAIR      79  41  25 NE6       30.19F                  
PETER O KNIGHT CLOUDY    79  43  27 CALM      30.17F                  
ST PETERSBURG  FAIR      78  45  30 CALM      30.15F                  
SARASOTA       FAIR      78  40  25 S6        30.14F                  
VENICE         FAIR      73  52  46 SW13      30.17F                  

STATION/POSITION SKY/WX   TEMP    WIND        PRES    WAVE   SWELL
                          AIR SEA DIR/SP/G            HT/PER HT/PER
                          (F)     (DEG/KT/KT) (MB)    (FT/S) (FT/S)
27.3N   84.2W                 73                N/A     2/ 4
CLEARWATER BEACH           68 68              1022.0F
MIDDLE TAMPA BAY           71                 1021.7F
VENICE                     69 71  220/ 10/ 12 1021.4F

$$
FLZ066-069-070-075>078-162-262-165-265-232100-
SOUTHWEST FLORIDA AND KEYS
  
CITY           SKY/WX    TMP DP  RH WIND       PRES   REMARKS
PUNTA GORDA    FAIR      76  43  30 VRB7      30.18F                  
FT MYERS       FAIR      75  42  30 VRB3      30.15F                  
SOUTHWEST INTL FAIR      76  47  35 SE7       30.15F                  
NAPLES         FAIR      72  55  55 SW12      30.15F                  
MARCO ISLAND   FAIR      74  53  48 SW7       30.16F                  
IMMOKALEE      FAIR      79  46  31 CALM      30.14F                  
MARATHON       FAIR      78  57  48 NE9       30.14F                  
KEY WEST NAS   FAIR      76  55  48 N12       30.15F                  
KEY WEST INTL  FAIR      75  57  53 N10G17    30.15F                  

STATION/POSITION SKY/WX   TEMP    WIND        PRES    WAVE   SWELL
                          AIR SEA DIR/SP/G            HT/PER HT/PER
                          (F)     (DEG/KT/KT) (MB)    (FT/S) (FT/S)
NAPLES                     71 72              1021.3F
26.0N   85.6W              70 80   80/  8/ 10 1021.6F   1/ 5   2/ 5
DRY TORTUGAS               71      50/  8/ 10 1021.2F
SAND KEY                   70                 1021.1F
SOMBRERO KEY               71                 1020.4F
MOLASSES REEF              73 77  100/  9/ 11 1021.8F

$$
FLZ067-068-071>074-168-172>174-232100-
SOUTHEAST FLORIDA 
  
CITY           SKY/WX    TMP DP  RH WIND       PRES   REMARKS
W PALM BEACH   FAIR      76  55  48 NE10      30.17F                  
BOCA RATON     MOSUNNY   79  57  47 NE8       30.16F                  
FT LAUDER-EXEC FAIR      78  56  46 E14       30.16F                  
FT LAUDERDALE  FAIR      77  57  50 E8G18     30.15F                  
POMPANO BEACH  FAIR      77  57  50 NE10      30.16F                  
PEMBROKE PINES PTSUNNY   78  56  46 E14G20    30.16F                  
OPA LOCKA      FAIR      77  55  46 E7        30.16F                  
MIAMI          FAIR      77  55  46 E10       30.15F                  
WEST KENDALL   FAIR      79  56  45 SE14      30.15F                  
HOMESTEAD      FAIR      77  59  53 NE13      30.14F                  

STATION/POSITION SKY/WX   TEMP    WIND        PRES    WAVE   SWELL
                          AIR SEA DIR/SP/G            HT/PER HT/PER
                          (F)     (DEG/KT/KT) (MB)    (FT/S) (FT/S)
VIRGINIA KEY               74 75              1020.6F
LAKE WORTH                 71 75              1022.7F
FOWEY ROCKS                73 78   70/  9/ 10 1021.7F
SETTLEMENT POINT           72      30/  7/  8 1021.9F

$$